{"data":{"norad_id":61772,"intl_designator":"2024-199AP","name":"HYPERVIEW 1G (RS66S)","alt_names":[],"object_type":"PAYLOAD","status":"ACTIVE","operator":null,"country":"CIS","launch_date":"2024-11-04","launch_site_code":"VOSTO","launch_vehicle":null,"mission":null,"orbit_class":"UNKNOWN","rcs_meters":null,"size_class":null,"mass_kg":null,"dimensions":null,"purposes":["comms"],"wikipedia_slug":null,"has_3d_model":false,"image_url":null,"decayed_at":null,"tle_current":{"epoch":"2026-05-25T02:16:57.529056Z","epoch_age_seconds":73718,"freshness":"FRESH","line1":"1 61772U 24199AP  26145.09511029  .00099686  00000+0  82719-3 0  9990","line2":"2 61772  97.2930  23.7469 0004830  25.2006 334.9491 15.69877032131046","mean_motion":15.69877032,"eccentricity":0.000483,"inclination_deg":97.293,"raan_deg":23.7469,"arg_perigee_deg":25.2006,"mean_anomaly_deg":334.9491,"bstar":0.00082719,"rev_number":13104,"period_min":91.726929603235,"perigee_km":355.99465380625,"apogee_km":362.50296849982,"semimajor_km":6737.385811153,"source":"CELESTRAK","updated_at":"2026-05-25T13:38:23.295324Z"}}}